EW7786 Weather Reports


Display with metric or nautical units.
time (UTC)temp
F
wind
direction
speed
MPH
gust
MPH
rain 1hr
in
rain 24hr
in
rain mn
in
humidity
%
barometer
mb
20260504081505 57 184 3.0 8.0 0.00 0.00 0.00 39 1005.3
20260504044534 60 153 1.0 3.0 0.00 0.00 0.00 39 1007.0
20260504043034 60 152 2.0 5.0 0.00 0.00 0.00 39 1007.3
20260504041534 60 167 3.0 5.0 0.00 0.00 0.00 39 1007.6
20260504040033 61 175 2.0 5.0 0.00 0.00 0.00 39 1007.6
20260504034533 61 191 3.0 5.0 0.00 0.00 0.00 39 1007.9
20260504033037 61 217 3.0 4.0 0.00 0.00 0.00 39 1007.8
20260504031532 61 217 2.0 4.0 0.00 0.00 0.00 39 1008.0
20260504030031 61 222 3.0 5.0 0.00 0.00 0.00 39 1008.1
20260504024529 61 323 2.0 3.0 0.00 0.00 0.00 39 1008.3
20260504023030 61 324 0.0 0.0 0.00 0.00 0.00 39 1008.2
20260504021530 62 324 0.0 2.0 0.00 0.00 0.00 39 1007.9
20260504020031 62 324 2.0 3.0 0.00 0.00 0.00 39 1008.2
20260504014541 62 324 1.0 5.0 0.00 0.00 0.00 39 1008.0
20260504013027 63 323 4.0 5.0 0.00 0.00 0.00 39 1007.9
20260504011527 64 323 3.0 6.0 0.00 0.00 0.00 39 1007.5
20260504010026 64 324 1.0 3.0 0.00 0.00 0.00 39 1007.6
20260504004524 65 324 0.0 4.0 0.00 0.00 0.00 39 1007.3
20260504003023 65 323 5.0 8.0 0.00 0.00 0.00 39 1007.8
20260504001525 67 290 6.0 8.0 0.00 0.00 0.00 39 1007.9
20260504000037 68 265 3.0 8.0 0.00 0.00 0.00 39 1007.1
20260503234519 69 297 9.0 15.0 0.00 0.00 0.00 39 1007.7
20260503233020 70 265 10.0 14.0 0.00 0.00 0.00 39 1007.4
20260503231513 71 277 15.0 20.0 0.00 0.00 0.00 39 1008.1
20260503230012 72 260 14.0 21.0 0.00 0.00 0.00 39 1007.8
20260503224511 72 264 17.0 23.0 0.00 0.00 0.00 39 1007.6
20260503223010 72 244 16.0 25.0 0.00 0.00 0.00 39 1007.2
20260503221508 72 242 18.0 25.0 0.00 0.00 0.00 39 1007.5
20260503220007 72 245 20.0 26.0 0.00 0.00 0.00 39 1007.9
20260503214520 72 240 21.0 32.0 0.00 0.00 0.00 39 1007.6
20260503213005 72 240 21.0 28.0 0.00 0.00 0.00 39 1008.0
20260503211506 72 230 21.0 29.0 0.00 0.00 0.00 39 1008.0
20260503210007 72 215 20.0 24.0 0.00 0.00 0.00 39 1008.3
20260503204609 71 220 18.0 28.0 0.00 0.00 0.00 39 1008.8
20260503203106 71 231 18.0 27.0 0.00 0.00 0.00 39 1008.9
20260503201555 69 236 17.0 25.0 0.00 0.00 0.00 39 1009.6
20260503200052 69 213 19.0 24.0 0.00 0.00 0.00 39 1009.8
20260503194606 68 227 23.0 28.0 0.00 0.00 0.00 39 1009.9
20260503193048 66 221 20.0 27.0 0.00 0.00 0.00 39 1010.1
20260503191548 66 215 24.0 27.0 0.00 0.00 0.00 39 1010.1
20260503190057 66 203 18.0 30.0 0.00 0.00 0.00 39 1010.2
20260503184546 67 190 23.0 30.0 0.00 0.00 0.00 39 1010.6
20260503183051 67 214 22.0 28.0 0.00 0.00 0.00 39 1010.5
20260503181542 67 219 23.0 33.0 0.00 0.00 0.00 39 1011.1
20260503180042 67 219 22.0 30.0 0.00 0.00 0.00 39 1011.4
20260503174538 65 209 23.0 33.0 0.00 0.00 0.00 39 1012.0
20260503173106 66 202 24.0 38.0 0.00 0.00 0.00 39 1012.2
20260503171536 65 198 28.0 36.0 0.00 0.00 0.00 39 1011.9
20260503100112 42 188 4.0 7.0 0.00 0.00 0.00 39 1016.5